Temp
52 53 53 53 53 54 53 54 54 55 55 57 57 57 57 56 57 59 61 64 67 69 71 72 73 73 73 73 73 72 71 71 71 71 71 66 68 70 72 72 72 73 73
52 52 52 52 52 53 53 53 53 54 54 54 55 56 55 56 57 59 63 62 63 66 68 70 70 71 71 72 71 71 71 70 70 69 68 67 68 68 68 72 72 72 72
52 52 52 51 51 52 52 52 52 53 52 54 52 54 55 56 58 57 57 57 58 61 65 66 67 68 69 69 70 70 70 69 69 68 67 66 66 65 66 67 70 71 71
52 51 50 50 51 50 50 50 50 50 49 49 49 51 57 58 56 55 55 55 55 56 59 62 62 63 65 66 68 69 68 68 68 68 68 68 67 65 65 65 64 66 68
52 50 49 49 49 49 47 48 49 48 46 47 52 57 55 54 54 55 53 53 52 52 53 57 58 59 61 63 65 66 66 67 67 67 67 67 68 67 66 65 65 66 66
51 49 48 48 48 47 46 46 45 46 45 44 53 55 52 52 52 50 50 52 50 50 49 49 49 50 58 60 62 63 65 65 66 66 66 66 66 67 67 67 66 65 66
50 48 46 46 46 44 43 44 43 43 44 43 47 52 50 50 49 47 47 45 46 47 47 46 46 45 47 56 58 60 62 63 64 65 65 65 64 65 65 67 66 65 65
48 49 45 44 44 43 42 41 41 41 42 42 42 43 43 46 48 47 45 47 43 44 46 46 44 44 43 44 52 57 59 61 62 63 64 64 63 63 64 65 66 65 65
47 46 45 43 42 41 40 40 39 40 39 41 41 42 39 39 40 46 45 43 43 41 41 44 44 44 43 43 46 49 56 57 59 61 62 63 63 62 62 63 63 63 63
46 46 45 43 42 41 40 40 42 39 39 38 40 44 40 40 38 38 42 41 42 43 39 42 41 42 42 42 47 52 54 55 58 59 60 62 61 61 60 62 61 61 61
45 45 44 42 41 40 40 40 39 39 38 38 37 38 38 38 38 37 35 37 39 40 39 40 40 40 42 42 43 47 52 54 56 57 59 60 60 59 58 59 59 59 59
42 43 44 42 41 40 40 39 39 39 38 37 37 37 38 37 36 35 33 32 33 37 38 39 39 39 40 40 47 48 50 52 54 55 57 58 58 56 56 57 58 57 57
40 41 41 40 40 40 40 40 39 38 38 37 37 37 37 37 37 36 34 32 31 34 36 37 37 38 43 38 40 47 47 50 52 53 55 55 54 53 53 54 55 56 55
41 42 41 40 41 41 40 40 38 38 37 36 37 36 37 37 37 37 36 33 31 31 33 35 36 36 37 38 42 46 39 47 50 51 52 52 52 51 51 52 53 54 54
43 42 41 40 40 40 40 39 37 37 37 36 36 35 35 36 36 36 35 35 32 30 30 32 33 35 36 37 40 39 38 44 48 49 50 50 50 50 50 50 51 52 52
41 41 41 40 40 40 39 38 37 37 36 36 36 35 34 35 35 34 34 34 33 31 29 32 33 34 36 40 41 38 37 44 45 48 49 49 49 49 49 49 51 51 50
41 41 41 40 40 39 39 37 37 37 36 36 36 35 35 35 34 33 33 33 32 31 29 31 32 33 33 34 36 35 37 36 36 45 47 48 48 48 48 48 49 49 49
42 42 41 41 40 40 39 37 37 39 36 35 35 35 34 39 33 33 32 31 31 31 31 30 30 30 31 32 33 32 37 40 36 42 46 46 47 47 47 47 47 47 47
42 41 41 41 42 41 40 39 38 37 37 36 36 35 35 34 32 32 31 30 30 34 30 29 30 29 29 30 30 31 32 32 38 42 44 44 44 45 46 46 45 45 45
43 41 42 43 42 42 41 40 39 37 36 37 37 36 35 34 34 32 32 31 32 29 28 28 29 28 28 30 29 28 29 30 31 37 40 41 42 43 44 43 43 43 43
42 41 42 40 42 41 43 40 39 38 37 36 36 36 35 36 40 38 36 33 30 29 29 29 28 27 27 27 27 29 29 29 29 30 30 31 32 32 33 38 40 41 41
39 39 39 40 40 42 47 47 44 38 38 37 36 34 35 41 40 44 45 44 36 30 29 28 28 28 28 27 27 28 28 25 25 31 29 29 31 30 32 31 38 41 42
38 37 37 37 38 41 46 48 48 43 38 36 35 35 35 40 40 36 41 44 45 45 41 33 31 30 28 29 28 28 27 28 29 33 32 30 32 31 32 36 40 40 41
38 38 38 38 37 40 45 47 47 45 41 40 37 35 35 35 36 37 35 33 32 35 36 37 31 32 31 33 31 32 31 31 33 34 31 27 31 30 32 32 38 40 40
37 36 36 36 35 38 43 45 45 41 40 38 38 37 38 37 39 42 36 32 32 34 39 41 42 41 41 42 41 35 32 31 29 31 29 27 28 27 29 31 32 37 39
36 35 36 34 37 37 41 44 44 38 35 36 33 37 42 39 41 42 37 33 31 34 34 32 32 36 40 38 42 36 32 30 29 27 30 25 26 27 24 27 27 29 29
MSLP
1020.34 1020.14 1019.95 1019.67 1019.51 1019.20 1018.98 1018.85 1018.63 1018.31 1018.11 1017.90 1017.73 1017.57 1017.42 1017.25 1017.04 1016.89 1016.86 1016.72 1016.49 1016.17 1015.92 1015.75 1015.48 1015.27 1015.00 1014.65 1014.55 1014.43 1014.44 1014.45 1014.24 1013.95 1013.58 1014.81 1013.80 1013.86 1013.72 1014.01 1014.16 1014.30 1014.43
1020.57 1020.42 1020.20 1020.02 1019.75 1019.48 1019.36 1019.16 1018.91 1018.64 1018.52 1018.27 1017.92 1017.68 1017.55 1017.29 1017.09 1016.95 1016.91 1017.14 1017.07 1016.70 1016.30 1016.06 1015.87 1015.73 1015.44 1015.15 1014.97 1014.72 1014.65 1014.65 1014.35 1014.29 1014.46 1014.50 1014.32 1013.65 1012.83 1013.11 1013.64 1013.73 1013.79
1020.80 1020.67 1020.47 1020.38 1020.08 1019.76 1019.44 1019.25 1018.96 1018.78 1018.70 1018.38 1018.23 1017.97 1017.67 1017.47 1017.48 1017.54 1017.54 1017.54 1017.47 1017.28 1016.81 1016.67 1016.49 1016.23 1015.94 1015.69 1015.41 1015.08 1015.00 1014.84 1014.59 1014.49 1014.42 1014.42 1014.16 1013.60 1013.18 1012.53 1013.27 1012.95 1013.06
1020.93 1020.87 1020.79 1020.70 1020.41 1019.99 1019.75 1019.52 1019.31 1019.19 1019.06 1018.79 1018.54 1018.23 1017.91 1017.76 1017.90 1017.97 1017.96 1017.95 1017.83 1017.78 1017.60 1017.47 1017.31 1017.03 1016.76 1016.42 1015.98 1015.58 1015.41 1015.33 1015.10 1014.76 1014.43 1014.28 1014.13 1014.08 1013.64 1012.87 1013.47 1013.18 1012.46
1021.19 1021.07 1021.02 1020.96 1020.65 1020.35 1020.27 1020.11 1019.83 1019.74 1019.63 1019.25 1018.81 1018.59 1018.43 1018.40 1018.40 1018.40 1018.51 1018.51 1018.42 1018.34 1018.32 1018.18 1018.02 1017.72 1017.44 1017.08 1016.72 1016.36 1016.08 1015.85 1015.57 1015.23 1014.96 1014.56 1014.10 1013.84 1013.63 1013.27 1013.01 1011.75 1012.45
1021.40 1021.35 1021.38 1021.19 1020.95 1020.82 1020.83 1020.62 1020.46 1020.22 1020.14 1019.97 1019.41 1019.15 1019.06 1019.00 1018.92 1019.01 1019.12 1019.01 1018.96 1018.85 1018.80 1018.75 1018.64 1018.47 1018.06 1017.76 1017.37 1016.98 1016.60 1016.26 1015.95 1015.67 1015.44 1014.98 1014.61 1014.11 1013.54 1013.17 1012.99 1012.82 1012.95
1021.77 1021.71 1021.68 1021.47 1021.31 1021.43 1021.48 1021.28 1020.95 1020.79 1020.52 1020.30 1020.03 1019.82 1019.72 1019.62 1019.55 1019.63 1019.65 1019.65 1019.51 1019.33 1019.19 1019.16 1019.11 1019.04 1018.82 1018.29 1017.91 1017.59 1017.18 1016.76 1016.42 1016.09 1015.74 1015.49 1015.28 1014.80 1014.21 1013.40 1013.14 1012.92 1012.75
1021.94 1021.76 1021.77 1021.82 1021.78 1021.81 1021.78 1021.60 1021.45 1021.41 1021.29 1021.10 1021.01 1020.82 1020.61 1020.37 1020.18 1020.15 1020.11 1020.14 1020.13 1019.82 1019.61 1019.55 1019.51 1019.41 1019.17 1018.83 1018.48 1018.19 1017.88 1017.46 1017.06 1016.54 1016.13 1015.86 1015.66 1015.42 1015.06 1014.31 1013.93 1013.51 1013.30
1021.97 1021.88 1021.85 1021.86 1021.90 1021.93 1021.94 1021.85 1021.76 1021.80 1021.89 1021.44 1021.26 1021.32 1021.23 1021.15 1020.88 1020.36 1020.42 1020.42 1020.32 1020.21 1020.06 1019.83 1019.78 1019.62 1019.43 1019.22 1019.04 1018.85 1018.45 1018.04 1017.58 1017.15 1016.50 1016.03 1015.92 1015.84 1015.51 1015.19 1014.73 1014.41 1014.14
1021.90 1021.86 1021.88 1021.91 1021.89 1021.92 1021.94 1021.85 1021.84 1021.92 1021.89 1021.88 1021.56 1021.37 1021.30 1021.28 1021.25 1020.99 1020.57 1020.64 1020.54 1020.44 1020.22 1019.87 1020.00 1019.87 1019.74 1019.64 1019.44 1019.13 1018.84 1018.46 1017.94 1017.54 1016.99 1016.40 1016.17 1016.15 1016.01 1015.42 1015.27 1015.16 1015.05
1021.94 1022.00 1022.02 1022.03 1022.00 1022.00 1021.96 1021.84 1021.76 1021.73 1021.71 1021.85 1021.91 1021.79 1021.64 1021.61 1021.63 1021.81 1021.51 1021.24 1020.90 1020.70 1020.62 1020.44 1020.41 1020.37 1020.27 1020.13 1019.85 1019.60 1019.24 1018.83 1018.33 1017.85 1017.29 1016.74 1016.47 1016.52 1016.36 1015.96 1015.61 1015.48 1015.39
1022.00 1021.89 1021.78 1021.83 1021.83 1021.86 1021.91 1021.94 1021.92 1021.95 1021.97 1021.99 1021.98 1021.94 1021.95 1022.02 1022.03 1022.19 1022.37 1022.18 1022.05 1021.35 1021.07 1020.91 1020.77 1020.74 1020.63 1020.48 1020.18 1019.96 1019.59 1019.19 1018.76 1018.28 1017.73 1017.14 1016.89 1016.94 1016.79 1016.42 1015.98 1015.80 1015.71
1021.73 1021.63 1021.72 1021.82 1021.89 1021.81 1021.79 1021.77 1021.84 1021.89 1021.96 1022.06 1022.07 1022.06 1022.00 1021.99 1021.98 1022.07 1022.27 1022.27 1022.27 1021.74 1021.30 1021.08 1020.96 1020.73 1020.42 1020.32 1020.06 1019.78 1019.61 1019.27 1018.94 1018.56 1018.15 1017.68 1017.53 1017.41 1017.18 1016.78 1016.36 1016.02 1015.92
1021.34 1021.37 1021.52 1021.62 1021.64 1021.67 1021.71 1021.79 1021.93 1021.94 1021.96 1021.96 1021.92 1021.91 1021.93 1021.92 1021.92 1021.97 1022.11 1022.36 1022.35 1022.09 1021.56 1021.07 1021.02 1020.85 1020.66 1020.46 1020.15 1019.78 1019.76 1019.31 1018.74 1018.43 1018.17 1018.10 1017.97 1017.71 1017.51 1017.15 1016.63 1016.21 1016.02
1020.93 1021.01 1021.11 1021.25 1021.34 1021.40 1021.43 1021.55 1021.65 1021.59 1021.60 1021.58 1021.58 1021.63 1021.69 1021.63 1021.70 1021.78 1021.85 1022.02 1022.34 1022.55 1021.98 1021.15 1021.11 1020.65 1020.52 1020.32 1020.07 1019.95 1019.80 1019.41 1018.93 1018.63 1018.23 1017.85 1017.69 1017.72 1017.63 1017.25 1016.83 1016.53 1016.33
1020.51 1020.54 1020.67 1020.83 1020.88 1020.93 1021.00 1021.12 1021.08 1021.01 1021.13 1021.11 1021.14 1021.23 1021.29 1021.33 1021.45 1021.60 1021.80 1021.87 1022.05 1022.27 1022.15 1021.10 1020.79 1020.47 1020.12 1019.94 1019.80 1019.74 1019.59 1019.27 1019.05 1018.60 1018.30 1018.10 1017.59 1017.30 1017.27 1017.14 1016.73 1016.66 1016.70
1019.81 1019.89 1019.94 1020.08 1020.16 1020.24 1020.40 1020.51 1020.60 1020.74 1020.90 1020.92 1021.05 1021.18 1021.18 1021.18 1021.18 1021.23 1021.42 1021.61 1021.78 1022.00 1022.05 1021.14 1020.72 1020.41 1020.23 1020.01 1019.79 1019.50 1019.29 1019.09 1018.89 1018.55 1018.14 1017.87 1017.75 1017.50 1017.17 1016.77 1016.50 1016.48 1016.67
1018.98 1018.93 1019.05 1019.28 1019.41 1019.49 1019.60 1019.79 1019.88 1019.87 1020.09 1020.30 1020.31 1020.53 1020.56 1020.72 1020.88 1020.90 1020.98 1021.10 1021.15 1021.02 1021.29 1021.10 1020.60 1020.42 1020.16 1019.82 1019.60 1019.63 1019.10 1018.74 1018.67 1018.37 1018.08 1017.85 1017.46 1017.20 1017.07 1016.77 1016.56 1016.40 1016.26
1018.22 1018.24 1018.39 1018.40 1018.32 1018.35 1018.51 1018.62 1018.80 1018.94 1019.08 1019.22 1019.43 1019.62 1019.67 1020.09 1020.30 1020.40 1020.55 1020.65 1020.60 1020.66 1020.94 1020.88 1020.36 1020.18 1020.03 1019.86 1019.56 1019.23 1019.10 1018.75 1018.39 1018.09 1017.84 1017.70 1017.43 1017.00 1016.81 1016.72 1016.67 1016.38 1016.02
1017.63 1017.50 1017.43 1017.40 1017.39 1017.36 1017.41 1017.55 1017.72 1017.88 1017.96 1018.08 1018.21 1018.40 1018.54 1018.85 1019.14 1019.49 1019.60 1019.48 1019.97 1020.22 1020.26 1020.33 1020.19 1020.04 1019.97 1019.71 1019.75 1019.47 1018.91 1018.62 1018.30 1017.92 1017.57 1017.47 1017.21 1017.00 1016.91 1016.73 1016.38 1016.19 1016.00
1017.17 1016.91 1016.73 1016.46 1016.33 1016.32 1016.18 1016.31 1016.58 1016.82 1017.05 1017.26 1017.42 1017.49 1017.67 1017.84 1017.89 1018.15 1018.41 1018.43 1018.70 1019.06 1019.43 1019.83 1019.90 1019.86 1019.60 1019.43 1019.46 1019.08 1018.85 1018.44 1018.03 1017.68 1017.42 1017.36 1017.32 1017.14 1016.99 1016.63 1016.30 1015.86 1015.68
1016.85 1016.66 1016.42 1016.27 1016.04 1015.80 1015.44 1015.37 1015.40 1015.71 1015.94 1016.21 1016.32 1016.45 1016.56 1016.80 1016.78 1016.87 1017.04 1017.20 1017.69 1017.96 1018.32 1018.75 1018.79 1018.86 1018.67 1018.66 1018.62 1018.56 1018.40 1018.43 1018.08 1017.17 1017.26 1017.09 1016.94 1016.77 1016.47 1016.29 1015.92 1015.42 1015.12
1016.45 1016.21 1015.86 1015.66 1015.43 1014.92 1014.70 1014.67 1014.59 1014.79 1015.10 1015.11 1015.19 1015.28 1015.61 1015.68 1015.86 1016.01 1016.15 1016.34 1016.26 1016.42 1016.78 1017.13 1017.33 1017.53 1017.70 1017.72 1017.79 1017.78 1017.74 1017.71 1017.40 1016.83 1016.92 1016.38 1016.31 1016.10 1015.71 1015.48 1015.16 1014.94 1014.72
1016.31 1015.84 1015.33 1014.97 1014.77 1014.19 1013.95 1013.70 1013.54 1013.77 1014.12 1014.03 1014.11 1014.33 1014.47 1014.67 1014.95 1015.27 1015.78 1015.95 1015.77 1015.69 1015.81 1015.90 1016.14 1016.28 1016.35 1016.56 1016.85 1016.79 1016.68 1016.68 1016.41 1016.13 1016.41 1016.11 1015.62 1015.33 1015.04 1014.81 1014.40 1014.13 1013.98
1015.84 1015.47 1014.96 1014.58 1014.40 1013.59 1013.20 1012.87 1012.84 1012.87 1012.92 1012.86 1013.14 1013.39 1013.62 1013.86 1014.01 1014.40 1014.84 1015.23 1015.02 1014.75 1014.97 1014.89 1014.93 1015.04 1015.20 1015.29 1015.44 1015.87 1015.96 1015.96 1015.58 1015.50 1015.68 1015.80 1015.17 1015.10 1014.68 1014.03 1013.66 1013.56 1013.42
1015.75 1015.32 1014.70 1014.16 1013.68 1013.18 1012.49 1012.31 1012.14 1012.24 1012.31 1012.20 1012.42 1012.46 1012.55 1012.88 1013.20 1013.60 1013.99 1014.30 1014.11 1013.82 1014.23 1014.32 1014.27 1014.19 1014.22 1014.38 1014.41 1014.82 1015.17 1015.35 1015.30 1014.95 1014.89 1015.49 1015.03 1015.04 1014.57 1013.79 1013.62 1013.51 1013.40
Wind_Speed
4 3 3 4 4 4 4 4 4 4 5 5 5 5 5 5 5 2 2 10 12 14 13 13 13 15 15 16 18 16 4 13 16 15 10 9 13 14 21 21 20 19 20
3 4 4 4 4 4 4 4 4 4 4 4 5 5 5 5 4 4 3 5 14 14 15 14 14 15 17 20 17 14 15 16 12 14 8 8 10 16 17 22 22 22 21
3 3 4 4 4 4 5 4 4 4 4 4 5 5 4 5 6 6 4 4 4 13 16 16 18 18 18 17 17 17 18 15 12 10 11 12 11 5 21 13 20 24 22
4 4 3 4 4 4 4 3 4 4 4 4 4 4 3 5 6 5 5 5 5 4 9 16 17 19 19 19 19 18 18 19 19 18 15 10 9 8 10 9 6 20 20
4 4 3 3 4 4 4 4 3 3 4 5 4 4 4 4 5 5 7 7 7 6 4 11 15 17 18 18 19 18 17 17 16 16 16 17 17 12 6 4 4 12 13
5 4 4 4 4 4 5 4 4 4 3 3 3 4 4 4 4 4 5 5 5 6 5 6 5 7 16 17 18 17 17 16 16 17 16 18 17 21 15 9 5 3 3
4 4 3 4 4 5 4 5 3 5 5 5 2 2 3 4 5 4 4 4 6 5 6 5 3 3 5 16 18 18 17 17 16 14 13 16 19 19 19 19 11 9 10
3 3 4 4 5 4 5 5 5 3 3 4 3 1 2 2 3 3 3 4 5 3 4 5 5 5 4 4 12 18 17 17 16 15 13 13 15 16 19 18 16 16 14
2 3 3 3 3 2 2 2 3 4 1 2 4 2 1 2 2 2 2 4 4 4 4 3 5 5 6 5 8 9 17 16 16 16 14 12 13 15 16 15 17 17 16
1 1 1 2 1 1 1 2 2 2 1 2 3 2 1 2 2 4 1 1 3 4 4 2 4 4 5 4 9 14 16 16 15 16 15 12 11 13 15 13 14 15 14
1 1 1 1 1 1 1 1 0 1 1 2 1 1 2 2 3 1 4 4 4 4 4 3 4 4 5 5 4 8 15 16 16 15 15 13 12 13 14 15 12 12 13
3 4 4 4 3 2 2 2 1 1 1 0 0 0 1 1 1 0 1 2 2 3 3 3 3 3 3 4 6 10 14 14 14 15 15 13 12 12 14 14 12 10 11
3 6 4 4 3 3 4 3 3 3 2 1 1 1 1 1 1 2 2 2 1 3 2 1 1 2 3 3 3 8 10 13 14 14 14 12 12 11 13 14 13 10 11
4 3 5 5 5 5 4 3 1 2 3 3 4 3 2 2 2 2 2 2 2 2 2 4 2 1 1 3 5 7 5 11 12 12 11 11 12 10 12 15 13 11 11
4 6 6 6 6 6 6 5 4 5 4 4 5 4 3 3 3 3 2 3 3 2 3 3 3 3 2 2 5 3 5 10 11 11 10 10 11 9 14 14 12 9 10
6 6 6 6 6 6 6 6 5 6 6 5 4 5 4 2 3 2 3 3 3 3 4 3 3 3 2 3 5 4 5 10 12 12 10 12 9 10 14 12 10 9 10
7 7 7 7 7 7 7 6 6 6 6 6 4 5 6 5 4 4 4 3 4 4 4 4 3 2 3 4 5 4 5 5 4 10 9 11 12 14 15 13 10 10 13
7 9 8 8 7 8 8 8 8 7 8 7 7 6 7 4 6 6 4 6 5 5 4 8 3 3 4 4 4 5 4 3 4 7 11 14 16 16 12 9 11 15 16
9 7 7 9 10 10 9 10 9 8 8 8 7 8 7 7 6 5 5 5 4 4 4 4 5 2 3 2 3 3 4 4 3 9 13 15 13 9 11 10 15 13 13
9 8 9 11 10 10 10 9 10 10 9 9 9 9 8 8 8 7 6 7 6 5 4 4 5 3 3 4 3 4 4 2 4 5 9 10 9 7 12 14 14 13 12
8 8 8 8 10 9 9 10 10 11 10 10 9 9 8 10 15 13 6 7 7 6 5 5 5 2 3 2 4 3 3 4 4 5 3 2 2 3 5 10 11 14 13
7 6 7 8 9 8 16 20 15 9 10 10 10 9 9 14 15 19 20 19 11 6 8 5 5 6 6 4 3 3 3 2 3 3 3 3 3 5 5 4 13 14 14
6 7 7 6 9 10 18 19 20 10 9 10 11 9 8 8 13 8 14 18 19 20 18 9 9 9 5 6 4 3 5 5 6 5 3 7 3 6 5 7 14 15 17
6 6 7 7 7 10 17 18 19 12 10 12 11 10 10 9 9 7 5 7 8 9 8 7 7 8 7 6 6 5 7 6 7 6 4 8 3 5 4 5 17 19 14
6 5 6 8 7 11 15 17 14 8 9 12 10 10 10 10 14 17 9 9 10 10 11 18 19 18 17 17 15 5 6 6 6 5 4 4 2 3 3 7 6 10 9
8 6 9 7 11 10 14 16 13 5 7 6 6 9 19 12 16 14 10 9 11 10 8 7 5 10 14 10 15 7 4 8 6 5 2 4 2 1 4 2 2 3 3
Wind_Direction
26 13 15 18 14 1 18 9 3 7 9 359 360 6 358 355 355 17 49 47 48 44 37 23 21 24 21 34 38 26 345 9 0 335 285 11 352 313 261 241 238 237 236
18 20 19 14 11 9 356 2 360 8 4 348 346 352 351 351 8 61 75 62 49 45 42 36 39 33 34 34 30 29 27 21 18 18 1 17 40 6 356 240 237 235 232
31 30 30 16 7 1 5 5 8 16 6 352 1 348 353 20 47 52 52 41 50 39 53 45 38 38 36 29 24 26 29 22 18 21 21 350 359 41 41 20 264 239 233
39 45 40 21 358 11 12 4 15 13 360 1 354 3 48 59 59 53 52 47 43 33 30 47 38 36 32 29 25 25 29 28 28 25 15 4 349 339 17 68 348 2 253
34 53 38 14 8 19 18 359 6 19 7 356 5 37 41 50 48 55 52 46 42 36 33 40 44 41 37 33 28 22 17 18 17 18 12 8 9 357 335 355 359 28 345
27 40 30 25 21 23 14 4 15 5 24 352 4 56 40 49 54 53 54 48 41 35 36 40 35 29 41 36 33 28 21 19 16 18 9 11 19 18 4 353 335 7 335
29 35 29 25 23 34 11 2 345 20 7 357 17 31 23 44 61 59 54 49 36 35 44 45 43 31 23 39 32 29 22 18 13 11 13 23 20 15 13 20 18 34 48
33 65 48 33 31 28 17 14 29 356 355 16 38 32 326 330 29 61 56 52 44 29 43 51 50 40 31 28 36 29 22 14 11 5 5 12 19 16 8 8 16 37 39
63 69 65 69 54 60 33 22 24 51 359 318 49 131 43 244 322 233 93 43 29 37 6 64 59 45 34 27 26 20 20 11 4 1 357 1 12 10 6 2 19 25 31
134 94 108 111 106 97 39 346 34 28 57 15 337 25 82 162 175 321 319 359 341 25 8 83 79 54 41 29 22 11 13 6 1 354 347 349 5 6 359 3 10 12 13
239 257 218 195 198 149 202 201 69 78 138 163 198 327 360 21 39 124 291 326 346 12 8 75 70 50 31 16 358 3 4 357 355 351 342 342 354 357 355 349 357 4 6
250 243 229 219 222 218 226 243 275 305 323 3 274 28 150 182 241 163 288 307 276 316 17 35 66 64 33 12 9 13 357 351 349 345 341 339 351 349 346 343 342 354 358
238 241 226 230 235 233 231 222 226 236 233 227 237 279 281 234 177 178 168 252 283 291 290 1 84 72 45 13 345 13 351 350 345 340 337 344 346 342 342 335 336 340 348
237 243 237 235 238 235 236 235 249 249 233 236 236 226 234 243 209 192 192 155 312 285 297 230 217 143 354 340 343 6 340 334 336 337 335 342 334 338 339 330 328 334 342
245 241 232 232 232 232 228 219 226 236 226 229 234 230 220 229 221 216 197 173 169 297 288 285 242 227 300 290 332 342 333 318 324 321 322 331 323 335 333 324 313 325 338
235 243 238 229 232 229 224 216 223 227 222 229 224 224 229 238 236 225 221 212 200 195 257 224 254 246 279 325 313 338 315 325 317 307 301 320 316 320 328 318 308 310 330
231 232 230 226 226 225 221 222 228 231 233 239 239 232 236 221 221 216 210 211 212 185 239 280 246 275 290 290 308 314 303 297 306 308 295 306 313 312 314 305 311 309 317
233 232 226 228 229 226 216 217 224 220 220 227 228 230 235 230 223 217 207 215 214 205 201 263 244 253 238 253 268 297 289 288 302 297 299 302 300 300 295 294 318 311 307
243 238 224 229 232 228 223 222 220 222 220 221 217 219 224 214 231 218 220 222 217 230 218 235 268 244 266 271 294 285 281 283 273 283 297 301 301 292 296 303 310 303 306
250 244 234 239 236 232 224 224 216 221 219 223 220 215 216 211 220 218 219 212 217 220 213 225 252 253 239 261 259 276 289 258 278 277 282 290 277 301 308 303 304 303 295
255 248 247 235 237 227 232 225 221 223 224 229 228 222 220 217 226 224 219 219 202 211 209 229 249 249 245 232 227 240 272 283 279 244 256 261 249 275 274 287 290 292 285
278 269 263 257 258 248 250 240 226 217 221 223 230 224 216 225 233 234 238 234 214 204 216 207 227 237 239 220 218 235 255 287 301 232 207 242 230 253 250 242 268 274 277
287 281 271 255 256 256 260 255 245 226 225 223 223 217 217 223 225 217 244 253 253 244 223 211 227 224 224 210 202 230 233 236 252 257 231 274 215 255 243 254 275 274 280
291 288 284 263 256 266 267 262 254 244 229 232 224 216 215 212 209 204 228 243 240 243 249 253 209 224 219 212 207 230 248 253 256 246 200 274 233 250 252 242 267 286 282
297 283 276 286 266 274 269 268 262 242 234 233 228 222 217 215 213 221 215 239 246 242 244 249 250 248 249 254 248 234 242 249 263 260 190 242 230 260 239 267 269 280 278
287 289 291 262 266 271 278 275 268 229 237 233 218 224 228 220 221 226 238 231 243 241 225 227 244 256 258 255 262 255 229 255 264 293 206 187 211 230 305 243 279 267 273